Location: Clover
(42.5131°N, 114.6874°W)
Time: 23:50:45
(UTC+00:00)

Transit 2A - Pass Details

Date: 12 December 2025
Orbit: 589 x 956 km, 66.7° (Epoch: 23 January)

Event Time Altitude Azimuth Distance (km) Brightness Sun altitude
Exits shadow 11:55:20 35° 143° (SE) 1,285 7.3 -33.0°
Maximum altitude 11:56:38 40° 111° (ESE) 1,192 7.3 -32.7°
Drops below altitude 10° 12:02:04 10° 43° (NE) 2,543 9.1 -31.7°
Sets 12:04:49 0° 37° (NE) 3,535 9.8 -31.2°
